Погода в Розвилле

США     38°47′23″N   121°17′01″W
темп.,
°C
ветер,
м/с
пор.,
м/с
влажн.,
%
обл.,
%
осадки,
мм/ч
давл.,
гПа
погр.,
м
16 октября, сб
сб1623:00+17всв22275 0.0 101931
02:00+16всв11285 0.0 101816
05:00+14св11295 0.0 101816
08:00+14св11305 0.0 101726
11:00+22з11185 0.0 1017376
14:00+27юз22135 0.0 1014695
17:00+27ююз23131 0.0 1012531
20:00+21вюв22190 0.0 101319
17 октября, вс
вс1723:00+18вюв2322100 0.0 101364
02:00+17вюв232485 0.0 101267
05:00+15вюв22273 0.0 101130
08:00+15юв2327100 0.0 101196
11:00+20ю3420100 0.0 1012575
14:00+23ююз481715 0.0 10081705
17:00+20юз7123519 0.0 10081172
20:00+15юз4764100 0.2 1010904
18 октября, пн
пн1823:00+13ююз57694 2.6 1012773
02:00+11ю477453 0.1 1013702
05:00+10ююв477812 0.2 1015547
08:00+10ююв358240 0.0 1017414
11:00+13ю345974 0.0 10181102
14:00+17юз11413 0.0 10171347
17:00+17сз22351 0.0 10151510
20:00+13с25460 0.0 1015174
19 октября, вт
вт1923:00+12св12523 0.0 101665
02:00+10всв115699 0.0 101657
05:00+9в115820 0.0 101656
08:00+10в115574 0.0 101779
11:00+16ююз22363 0.0 1017628
14:00+20ююз34281 0.0 10151327
17:00+21ююз3523100 0.0 10141536
20:00+15вюв0136100 0.0 101532
20 октября, ср
ср2023:00+13ююв1242100 0.0 101585
02:00+13юв1245100 0.0 101786
05:00+14вюв1340100 0.0 1017124
08:00+14з1240100 0.0 1019154
11:00+14ссз2345100 0.0 1020258
14:00+15с124688 0.0 1020201
17:00+15ссз2347100 0.1 1018196
20:00+13сз3672100 0.3 1020215